BAW810 EGLL-EIDW

Flight info

Callsign BAW810
Flight time 0h 51m
Altitude 32000
Route CPT5J CPT L9 DIDZA N14 BIBPE DCT OKTAD DCT MEDOG DCT KRAGY DCT PEMOB DCT LEMGU M17 VATRY VATRY4L
Aircraft A320/M-SDE3FGHIKRWXY/S

Departure

Time 2026-05-07 10:42
Airport London Heathrow Airport (EGLL)

Arrival

Time 2026-05-07 11:34
Airport Dublin Airport (EIDW)
Time Latitude Longitude Altitude Speed Heading
2026-05-07 09:43 51.47049 -0.48584 86 ft 0 kts 269°
2026-05-07 10:29 51.47049 -0.48556 90 ft 4 kts 269°
2026-05-07 10:29 51.47049 -0.48513 90 ft 3 kts 269°
2026-05-07 10:30 51.47071 -0.48471 86 ft 4 kts 179°
2026-05-07 10:30 51.47088 -0.48472 86 ft 0 kts 179°
2026-05-07 10:33 51.47060 -0.48471 86 ft 6 kts 179°
2026-05-07 10:33 51.47014 -0.48470 90 ft 8 kts 179°
2026-05-07 10:34 51.46953 -0.48470 87 ft 10 kts 180°
2026-05-07 10:34 51.46876 -0.48469 87 ft 12 kts 180°
2026-05-07 10:34 51.46784 -0.48468 89 ft 14 kts 180°
2026-05-07 10:34 51.46708 -0.48468 88 ft 11 kts 180°
2026-05-07 10:35 51.46670 -0.48468 86 ft 2 kts 180°
2026-05-07 10:35 51.46663 -0.48468 86 ft 0 kts 180°
2026-05-07 10:36 51.46656 -0.48468 89 ft 3 kts 180°
2026-05-07 10:36 51.46615 -0.48467 90 ft 6 kts 180°
2026-05-07 10:36 51.46590 -0.48467 86 ft 0 kts 179°
2026-05-07 10:36 51.46589 -0.48467 86 ft 1 kts 179°
2026-05-07 10:37 51.46566 -0.48467 86 ft 6 kts 179°
2026-05-07 10:37 51.46518 -0.48466 86 ft 8 kts 179°
2026-05-07 10:37 51.46478 -0.48426 90 ft 8 kts 89°
2026-05-07 10:37 51.46479 -0.48411 87 ft 0 kts 90°
2026-05-07 10:38 51.46479 -0.48410 87 ft 0 kts 90°
2026-05-07 10:38 51.46479 -0.48407 87 ft 0 kts 90°
2026-05-07 10:41 51.46479 -0.48406 87 ft 0 kts 90°
2026-05-07 10:41 51.46479 -0.48329 87 ft 27 kts 89°
2026-05-07 10:41 51.46481 -0.47635 85 ft 94 kts 89°
2026-05-07 10:42 51.46485 -0.46291 91 ft 144 kts 90°
2026-05-07 10:42 51.46490 -0.44498 217 ft 171 kts 90°
2026-05-07 10:42 51.46491 -0.42579 765 ft 177 kts 91°
2026-05-07 10:42 51.46273 -0.40610 1248 ft 186 kts 126°
2026-05-07 10:43 51.45185 -0.39537 1687 ft 195 kts 175°
2026-05-07 10:43 51.43812 -0.39983 1983 ft 214 kts 210°
2026-05-07 10:43 51.42530 -0.41459 2227 ft 241 kts 219°
2026-05-07 10:43 51.41202 -0.43299 2785 ft 257 kts 221°
2026-05-07 10:44 51.39854 -0.45196 3716 ft 260 kts 221°
2026-05-07 10:44 51.38493 -0.47135 4584 ft 264 kts 221°
2026-05-07 10:44 51.37110 -0.49108 5391 ft 269 kts 221°
2026-05-07 10:44 51.35709 -0.51077 6220 ft 272 kts 221°
2026-05-07 10:45 51.34273 -0.53078 7043 ft 276 kts 221°
2026-05-07 10:45 51.32816 -0.55106 7838 ft 279 kts 221°
2026-05-07 10:45 51.31369 -0.57193 8618 ft 282 kts 229°
2026-05-07 10:45 51.30349 -0.59873 9354 ft 284 kts 252°
2026-05-07 10:46 51.30092 -0.62989 10097 ft 286 kts 276°
2026-05-07 10:46 51.30668 -0.66027 10765 ft 292 kts 298°
2026-05-07 10:46 51.31781 -0.68892 10953 ft 315 kts 303°
2026-05-07 10:46 51.33036 -0.71912 11132 ft 335 kts 303°
2026-05-07 10:47 51.34364 -0.75046 11637 ft 343 kts 304°
2026-05-07 10:47 51.35715 -0.78232 12236 ft 348 kts 303°
2026-05-07 10:47 51.37074 -0.81467 12869 ft 352 kts 303°
2026-05-07 10:47 51.38435 -0.84736 13502 ft 355 kts 303°
2026-05-07 10:48 51.39806 -0.88052 14132 ft 358 kts 303°
2026-05-07 10:48 51.41164 -0.91355 14742 ft 361 kts 302°
2026-05-07 10:48 51.42566 -0.94776 15342 ft 364 kts 302°
2026-05-07 10:48 51.43939 -0.98140 15904 ft 367 kts 302°
2026-05-07 10:49 51.45340 -1.01572 16476 ft 369 kts 302°
2026-05-07 10:49 51.46753 -1.05031 17038 ft 372 kts 302°
2026-05-07 10:49 51.48178 -1.08516 17593 ft 375 kts 302°
2026-05-07 10:49 51.49617 -1.12030 18155 ft 378 kts 302°
2026-05-07 10:50 51.51067 -1.15567 18718 ft 381 kts 302°
2026-05-07 10:50 51.52527 -1.19140 19265 ft 384 kts 302°
2026-05-07 10:50 51.53995 -1.22752 19799 ft 388 kts 302°
2026-05-07 10:50 51.55472 -1.26400 20328 ft 391 kts 302°
2026-05-07 10:51 51.56963 -1.30088 20835 ft 395 kts 302°
2026-05-07 10:51 51.58468 -1.33808 21308 ft 399 kts 302°
2026-05-07 10:51 51.59989 -1.37570 21766 ft 402 kts 302°
2026-05-07 10:51 51.61484 -1.41396 22200 ft 405 kts 300°
2026-05-07 10:52 51.62885 -1.45346 22639 ft 408 kts 298°
2026-05-07 10:52 51.64226 -1.49404 23061 ft 411 kts 297°
2026-05-07 10:52 51.65521 -1.53462 23463 ft 414 kts 296°
2026-05-07 10:52 51.66838 -1.57614 23842 ft 418 kts 296°
2026-05-07 10:53 51.68179 -1.61792 24214 ft 422 kts 297°
2026-05-07 10:53 51.69487 -1.66044 24589 ft 424 kts 292°
2026-05-07 10:53 51.70424 -1.70560 24971 ft 426 kts 283°
2026-05-07 10:53 51.70922 -1.75285 25342 ft 429 kts 276°
2026-05-07 10:54 51.71273 -1.80068 25688 ft 431 kts 276°
2026-05-07 10:54 51.71643 -1.84886 26028 ft 434 kts 279°
2026-05-07 10:54 51.72298 -1.89655 26366 ft 436 kts 283°
2026-05-07 10:54 51.73014 -1.94428 26698 ft 439 kts 283°
2026-05-07 10:55 51.73734 -1.99237 27039 ft 441 kts 283°
2026-05-07 10:55 51.74451 -2.04057 27371 ft 444 kts 283°
2026-05-07 10:55 51.75168 -2.08916 27685 ft 446 kts 283°
2026-05-07 10:55 51.75884 -2.13808 27999 ft 448 kts 283°
2026-05-07 10:56 51.76588 -2.18655 28316 ft 450 kts 283°
2026-05-07 10:56 51.77304 -2.23572 28616 ft 452 kts 283°
2026-05-07 10:56 51.78027 -2.28527 28897 ft 454 kts 283°
2026-05-07 10:56 51.78751 -2.33497 29204 ft 455 kts 283°
2026-05-07 10:57 51.79473 -2.38478 29642 ft 453 kts 283°
2026-05-07 10:57 51.80188 -2.43424 30046 ft 452 kts 283°
2026-05-07 10:57 51.80898 -2.48369 30438 ft 452 kts 283°
2026-05-07 10:57 51.81607 -2.53317 30849 ft 450 kts 283°
2026-05-07 10:58 51.82306 -2.58243 31257 ft 449 kts 282°
2026-05-07 10:58 51.82989 -2.63177 31647 ft 448 kts 282°
2026-05-07 10:58 51.83653 -2.68086 31979 ft 448 kts 282°
2026-05-07 10:58 51.84309 -2.73017 32063 ft 449 kts 282°
2026-05-07 10:59 51.85606 -2.82845 32072 ft 449 kts 282°
2026-05-07 10:59 51.86920 -2.92720 32069 ft 449 kts 282°
2026-05-07 11:00 51.88238 -3.02596 32063 ft 448 kts 282°
2026-05-07 11:00 51.89545 -3.12471 32063 ft 449 kts 282°
2026-05-07 11:01 51.90845 -3.22376 32061 ft 449 kts 282°
2026-05-07 11:01 51.92130 -3.32223 32061 ft 449 kts 281°
2026-05-07 11:02 51.93408 -3.42141 32054 ft 450 kts 281°
2026-05-07 11:02 51.94674 -3.52069 32041 ft 450 kts 281°
2026-05-07 11:03 51.95943 -3.62018 32035 ft 450 kts 281°
2026-05-07 11:03 51.97201 -3.71986 32029 ft 451 kts 281°
2026-05-07 11:04 51.98449 -3.81960 32028 ft 451 kts 281°
2026-05-07 11:04 51.99695 -3.91966 32027 ft 452 kts 281°
2026-05-07 11:05 52.00933 -4.01979 32024 ft 453 kts 281°
2026-05-07 11:05 52.02152 -4.11946 32023 ft 453 kts 281°
2026-05-07 11:06 52.03378 -4.21982 32022 ft 453 kts 281°
2026-05-07 11:06 52.04592 -4.32026 32023 ft 453 kts 281°
2026-05-07 11:07 52.05794 -4.42087 31822 ft 454 kts 281°
2026-05-07 11:07 52.06392 -4.47126 31571 ft 454 kts 280°
2026-05-07 11:07 52.06991 -4.52175 31322 ft 454 kts 280°
2026-05-07 11:08 52.07589 -4.57220 31071 ft 454 kts 280°
2026-05-07 11:08 52.08181 -4.62236 30820 ft 452 kts 280°
2026-05-07 11:08 52.08767 -4.67250 30569 ft 450 kts 280°
2026-05-07 11:08 52.09348 -4.72238 30316 ft 448 kts 280°
2026-05-07 11:09 52.09924 -4.77198 30064 ft 446 kts 280°
2026-05-07 11:09 52.10499 -4.82136 29566 ft 442 kts 280°
2026-05-07 11:09 52.11057 -4.86965 29014 ft 439 kts 280°
2026-05-07 11:09 52.11618 -4.91838 28452 ft 436 kts 279°
2026-05-07 11:10 52.12171 -4.96672 27916 ft 433 kts 279°
2026-05-07 11:10 52.12720 -5.01478 27340 ft 430 kts 279°
2026-05-07 11:10 52.13307 -5.06243 26776 ft 428 kts 284°
2026-05-07 11:10 52.14347 -5.10770 26223 ft 426 kts 296°
2026-05-07 11:11 52.15916 -5.14846 25676 ft 424 kts 308°
2026-05-07 11:11 52.17951 -5.18291 25157 ft 421 kts 320°
2026-05-07 11:11 52.20357 -5.20994 24641 ft 419 kts 332°
2026-05-07 11:11 52.22943 -5.23121 24169 ft 415 kts 333°
2026-05-07 11:12 52.25511 -5.25219 23982 ft 410 kts 333°
2026-05-07 11:12 52.28060 -5.27318 23133 ft 411 kts 333°
2026-05-07 11:12 52.30646 -5.29457 22405 ft 416 kts 333°
2026-05-07 11:12 52.33193 -5.31564 22182 ft 406 kts 332°
2026-05-07 11:13 52.35704 -5.33642 21699 ft 404 kts 332°
2026-05-07 11:13 52.38175 -5.35684 21235 ft 402 kts 332°
2026-05-07 11:13 52.40673 -5.37747 20751 ft 401 kts 332°
2026-05-07 11:13 52.43156 -5.39791 20268 ft 398 kts 332°
2026-05-07 11:14 52.45621 -5.41825 19771 ft 396 kts 332°
2026-05-07 11:14 52.48078 -5.43860 19274 ft 394 kts 332°
2026-05-07 11:14 52.50518 -5.45892 18768 ft 392 kts 332°
2026-05-07 11:14 52.52940 -5.47912 18260 ft 389 kts 331°
2026-05-07 11:15 52.55352 -5.49847 18008 ft 380 kts 336°
2026-05-07 11:15 52.57826 -5.51209 18005 ft 372 kts 341°
2026-05-07 11:15 52.60300 -5.52472 18012 ft 372 kts 341°
2026-05-07 11:15 52.62773 -5.53745 18009 ft 373 kts 341°
2026-05-07 11:16 52.65256 -5.55027 17313 ft 379 kts 341°
2026-05-07 11:16 52.67801 -5.56344 16505 ft 385 kts 341°
2026-05-07 11:16 52.70356 -5.57663 15917 ft 384 kts 341°
2026-05-07 11:16 52.72897 -5.58975 15372 ft 381 kts 341°
2026-05-07 11:17 52.75420 -5.60281 14819 ft 378 kts 341°
2026-05-07 11:17 52.77890 -5.61565 14278 ft 376 kts 341°
2026-05-07 11:17 52.80372 -5.62860 13735 ft 373 kts 341°
2026-05-07 11:17 52.82845 -5.64149 13187 ft 370 kts 341°
2026-05-07 11:18 52.85288 -5.65421 12654 ft 367 kts 341°
2026-05-07 11:18 52.87712 -5.66690 12114 ft 364 kts 341°
2026-05-07 11:18 52.90117 -5.67953 11570 ft 361 kts 341°
2026-05-07 11:18 52.92501 -5.69203 11240 ft 353 kts 341°
2026-05-07 11:19 52.94799 -5.70404 11115 ft 339 kts 341°
2026-05-07 11:19 52.97010 -5.71561 10980 ft 327 kts 341°
2026-05-07 11:19 52.99143 -5.72683 10862 ft 316 kts 341°
2026-05-07 11:19 53.01208 -5.73774 10683 ft 308 kts 341°
2026-05-07 11:20 53.03212 -5.74828 10384 ft 305 kts 341°
2026-05-07 11:20 53.05228 -5.75894 10027 ft 304 kts 340°
2026-05-07 11:20 53.07239 -5.76962 9678 ft 303 kts 340°
2026-05-07 11:20 53.09242 -5.78025 9411 ft 299 kts 340°
2026-05-07 11:21 53.11190 -5.79023 9267 ft 284 kts 346°
2026-05-07 11:21 53.13094 -5.79097 9087 ft 270 kts 14°
2026-05-07 11:21 53.14766 -5.77811 8866 ft 264 kts 41°
2026-05-07 11:21 53.15916 -5.75500 8563 ft 258 kts 63°
2026-05-07 11:22 53.16500 -5.73778 8351 ft 258 kts 63°
2026-05-07 11:22 53.17383 -5.71171 8046 ft 257 kts 63°
2026-05-07 11:22 53.18261 -5.68573 7738 ft 257 kts 63°
2026-05-07 11:22 53.19141 -5.65991 7436 ft 255 kts 62°
2026-05-07 11:23 53.20224 -5.63655 7123 ft 256 kts 44°
2026-05-07 11:23 53.21629 -5.61837 6984 ft 257 kts 37°
2026-05-07 11:23 53.23075 -5.60070 6994 ft 258 kts 37°
2026-05-07 11:23 53.24522 -5.58283 7002 ft 259 kts 38°
2026-05-07 11:24 53.25950 -5.56508 7011 ft 259 kts 38°
2026-05-07 11:24 53.27399 -5.54708 6999 ft 259 kts 38°
2026-05-07 11:24 53.28913 -5.53067 7000 ft 260 kts 25°
2026-05-07 11:24 53.30642 -5.52293 6982 ft 258 kts 359°
2026-05-07 11:25 53.32357 -5.52909 6689 ft 251 kts 330°
2026-05-07 11:25 53.33710 -5.54660 6365 ft 244 kts 304°
2026-05-07 11:25 53.34471 -5.57118 6049 ft 236 kts 281°
2026-05-07 11:25 53.34883 -5.59770 5734 ft 235 kts 281°
2026-05-07 11:26 53.35296 -5.62408 5438 ft 234 kts 281°
2026-05-07 11:26 53.35708 -5.65033 5153 ft 232 kts 281°
2026-05-07 11:26 53.36109 -5.67583 5032 ft 222 kts 281°
2026-05-07 11:26 53.36498 -5.70039 4906 ft 214 kts 280°
2026-05-07 11:27 53.36870 -5.72388 4797 ft 203 kts 280°
2026-05-07 11:27 53.37222 -5.74622 4686 ft 193 kts 280°
2026-05-07 11:27 53.37552 -5.76745 4471 ft 190 kts 279°
2026-05-07 11:27 53.37883 -5.78881 4205 ft 189 kts 280°
2026-05-07 11:28 53.38212 -5.81005 3941 ft 188 kts 279°
2026-05-07 11:28 53.38538 -5.83124 3669 ft 187 kts 279°
2026-05-07 11:28 53.38862 -5.85235 3386 ft 187 kts 280°
2026-05-07 11:28 53.39184 -5.87339 3122 ft 186 kts 279°
2026-05-07 11:29 53.39508 -5.89436 3031 ft 186 kts 279°
2026-05-07 11:29 53.39834 -5.91538 3033 ft 187 kts 280°
2026-05-07 11:29 53.40143 -5.93646 3020 ft 186 kts 276°
2026-05-07 11:29 53.40337 -5.95759 3016 ft 177 kts 272°
2026-05-07 11:30 53.40470 -5.97717 3052 ft 168 kts 271°
2026-05-07 11:30 53.40587 -5.99643 3031 ft 165 kts 270°
2026-05-07 11:30 53.40698 -6.01552 2904 ft 163 kts 270°
2026-05-07 11:30 53.40807 -6.03440 2715 ft 162 kts 271°
2026-05-07 11:31 53.40916 -6.05330 2511 ft 164 kts 271°
2026-05-07 11:31 53.41025 -6.07237 2303 ft 165 kts 271°
2026-05-07 11:31 53.41132 -6.09150 2085 ft 166 kts 271°
2026-05-07 11:31 53.41242 -6.11080 1875 ft 165 kts 272°
2026-05-07 11:32 53.41458 -6.14900 1424 ft 157 kts 272°
2026-05-07 11:32 53.41559 -6.16684 1219 ft 152 kts 273°
2026-05-07 11:32 53.41657 -6.18437 1021 ft 150 kts 273°
2026-05-07 11:33 53.41753 -6.20175 820 ft 149 kts 273°
2026-05-07 11:33 53.41848 -6.21878 634 ft 148 kts 273°
2026-05-07 11:33 53.41943 -6.23592 426 ft 147 kts 273°
2026-05-07 11:33 53.42038 -6.25307 238 ft 147 kts 274°
2026-05-07 11:34 53.42121 -6.26815 217 ft 106 kts 275°
2026-05-07 11:34 53.42174 -6.27739 210 ft 43 kts 277°
2026-05-07 11:34 53.42265 -6.28035 221 ft 18 kts 300°
2026-05-07 11:34 53.42304 -6.28123 215 ft 9 kts 326°
2026-05-07 11:35 53.42358 -6.28096 215 ft 11 kts 71°
2026-05-07 11:35 53.42358 -6.27960 213 ft 13 kts 95°
2026-05-07 11:35 53.42349 -6.27794 214 ft 16 kts 95°
2026-05-07 11:35 53.42338 -6.27599 211 ft 18 kts 95°
2026-05-07 11:36 53.42325 -6.27378 211 ft 20 kts 95°
2026-05-07 11:36 53.42312 -6.27127 216 ft 23 kts 95°
2026-05-07 11:36 53.42298 -6.26865 211 ft 20 kts 95°
2026-05-07 11:36 53.42284 -6.26624 211 ft 22 kts 95°
2026-05-07 11:37 53.42269 -6.26356 211 ft 24 kts 96°
2026-05-07 11:37 53.42307 -6.26089 219 ft 25 kts 52°
2026-05-07 11:37 53.42432 -6.25870 211 ft 27 kts 46°
2026-05-07 11:37 53.42566 -6.25644 217 ft 22 kts 45°
2026-05-07 11:38 53.42666 -6.25472 213 ft 20 kts 45°
2026-05-07 11:38 53.42761 -6.25310 211 ft 18 kts 45°
2026-05-07 11:38 53.42796 -6.25175 213 ft 14 kts 95°
2026-05-07 11:38 53.42793 -6.25075 211 ft 7 kts 79°
2026-05-07 11:39 53.42833 -6.25021 213 ft 9 kts 38°
2026-05-07 11:39 53.42880 -6.24939 214 ft 11 kts 47°
2026-05-07 11:39 53.42892 -6.24865 214 ft 8 kts 132°
2026-05-07 11:39 53.42863 -6.24816 211 ft 1 kts 135°
2026-05-07 11:40 53.42862 -6.24813 211 ft 0 kts 135°